Location: Ay?beleni
(36.6500°N, 30.3000°E)
Time: 01:52:42
(UTC+00:00)

ISS - Visible Passes

Search period start: 01 August 2021 00:00
Search period end: 11 August 2021 00:00
Orbit: 419 x 421 km, 51.6° (Epoch: 31 July)

Date Brightness Start Highest point End Pass type
(mag) Time Alt. Az. Time Alt. Az. Time Alt. Az.
01 Aug -3.5 18:55:55 10° WNW 18:59:15 57° SW 18:59:15 57° SW visible
02 Aug -3.8 18:08:34 10° NW 18:11:57 76° NE 18:13:47 24° ESE visible
03 Aug -1.5 18:58:54 10° W 19:01:08 17° SW 19:01:22 17° SW visible
04 Aug -2.3 18:10:56 10° WNW 18:13:56 30° SW 18:16:02 16° S visible
05 Aug -3.2 17:23:20 10° WNW 17:26:39 56° SW 17:29:56 10° SE visible
07 Aug -1.2 17:26:15 10° W 17:28:27 16° SW 17:30:39 10° S visible
